 day, avr_air_temp(C), avr_RH(%), avr_ground_temp10cm(C), avr_ground_temp20cm(C), avr_ground_temp40cm(C), sum_precipitation(mm/h), sum_Solar_Radiation(MJ/m2h), max_air_temp(C), max_air_temp(time), max_RH(%), max_RH(time), max_ground_temp10cm(C), max_ground_temp10cm(time), max_ground_temp20cm(C), max_ground_temp20cm(time), max_ground_temp40cm(C), max_ground_temp40cm(time), max_precipitation(mm/h), max_precipitation(time), max_Solar_Radiation(MJ/m2h), max_Solar_Radiation(time), min_air_temp(C), min_air_temp(time), min_RH(%), min_RH(time), min_ground_temp10cm(C), min_ground_temp10cm(time), min_ground_temp20cm(C), min_ground_temp20cm(time), min_ground_temp40cm(C), min_ground_temp40cm(time), 
 08/01/01, -7.3, 92, 1, 1.7, 3.1, 25, 1.19, -6,  08/01/01 14:00, 96, 08/01/01 12:00, 1, 08/01/01 11:00, 1.7, 08/01/01 01:00, 3.1, 08/01/01 01:00, 3.5, 08/01/01 01:00, 0.38, 08/01/01 14:00, -8.1,  08/01/02 00:00, 85, 08/01/02 00:00, 0.9, 08/01/01 01:00, 1.6, 08/01/01 21:00, 3, 08/01/01 17:00, 
 08/01/02, -6.7, 83, 1, 1.7, 3, 0.5, 6.99, -5.1,  08/01/02 15:00, 92, 08/01/03 00:00, 1, 08/01/02 01:00, 1.7, 08/01/02 02:00, 3.1, 08/01/02 03:00, 0.5, 08/01/02 23:00, 1.49, 08/01/02 13:00, -8,  08/01/02 01:00, 71, 08/01/02 20:00, 1, 08/01/02 01:00, 1.6, 08/01/02 01:00, 2.9, 08/01/02 22:00, 
 08/01/03, -4.5, 89, 1, 1.7, 2.9, 6.5, 4.55, -2.1,  08/01/03 14:00, 97, 08/01/03 16:00, 1.1, 08/01/03 20:00, 1.7, 08/01/03 03:00, 3, 08/01/03 14:00, 1.5, 08/01/03 19:00, 1.1, 08/01/03 13:00, -6.6,  08/01/03 05:00, 71, 08/01/03 13:00, 1, 08/01/03 01:00, 1.6, 08/01/03 01:00, 2.9, 08/01/03 01:00, 
 08/01/04, -5.1, 91, 1.1, 1.7, 2.9, 1.5, 2, -2.9,  08/01/04 12:00, 97, 08/01/04 16:00, 1.1, 08/01/04 01:00, 1.8, 08/01/04 14:00, 3, 08/01/04 08:00, 1, 08/01/04 07:00, 0.44, 08/01/04 12:00, -8.7,  08/01/04 22:00, 81, 08/01/04 19:00, 1, 08/01/04 05:00, 1.6, 08/01/04 05:00, 2.9, 08/01/04 01:00, 
 08/01/05, -3.1, 82, 1.1, 1.7, 2.9, 0.5, 5.32, -0.4,  08/01/05 12:00, 99, 08/01/05 22:00, 1.1, 08/01/05 01:00, 1.8, 08/01/05 11:00, 3, 08/01/05 06:00, 0.5, 08/01/05 10:00, 1.3, 08/01/05 12:00, -7.1,  08/01/05 01:00, 68, 08/01/05 02:00, 1, 08/01/05 02:00, 1.6, 08/01/05 04:00, 2.9, 08/01/05 01:00, 
 08/01/06, -0.7, 80, 1.1, 1.7, 3, 0.5, 11.89, 1.8,  08/01/06 14:00, 89, 08/01/06 18:00, 1.1, 08/01/06 01:00, 1.8, 08/01/06 02:00, 3, 08/01/06 01:00, 0.5, 08/01/06 07:00, 2.16, 08/01/06 12:00, -3.3,  08/01/06 06:00, 68, 08/01/06 11:00, 1, 08/01/06 07:00, 1.7, 08/01/06 01:00, 2.9, 08/01/06 02:00, 
 08/01/07, 0.3, 60, 1.2, 1.7, 3, 0.5, 6.27, 3.7,  08/01/07 13:00, 85, 08/01/07 22:00, 1.2, 08/01/07 11:00, 1.9, 08/01/07 14:00, 3.1, 08/01/07 14:00, 0.5, 08/01/07 21:00, 1.17, 08/01/07 11:00, -3.7,  08/01/07 22:00, 29, 08/01/07 05:00, 1.1, 08/01/07 01:00, 1.7, 08/01/07 01:00, 2.9, 08/01/07 04:00, 
 08/01/08, -0.9, 86, 1, 1.7, 3, 0.5, 2, 0.5,  08/01/08 10:00, 99, 08/01/08 14:00, 1, 08/01/08 01:00, 1.7, 08/01/08 01:00, 3, 08/01/08 01:00, 0.5, 08/01/08 18:00, 0.46, 08/01/08 12:00, -2.1,  08/01/08 01:00, 73, 08/01/08 02:00, 1, 08/01/08 01:00, 1.7, 08/01/08 01:00, 2.9, 08/01/08 06:00, 
 08/01/09, -1.4, 76, 1.1, 1.7, 2.9, 0.5, 9.59, 0.9,  08/01/09 15:00, 91, 08/01/09 01:00, 1.1, 08/01/09 11:00, 1.8, 08/01/09 12:00, 2.9, 08/01/09 01:00, 0.5, 08/01/09 14:00, 1.85, 08/01/09 11:00, -4.2,  08/01/10 00:00, 57, 08/01/09 12:00, 1, 08/01/09 01:00, 1.7, 08/01/09 01:00, 2.9, 08/01/09 01:00, 
 08/01/10, -2.3, 65, 1, 1.6, 2.9, 0, 9.95, 1.2,  08/01/10 14:00, 92, 08/01/10 01:00, 1.1, 08/01/10 01:00, 1.7, 08/01/10 01:00, 2.9, 08/01/10 01:00, 0,   /  /     :, 1.97, 08/01/10 12:00, -4.6,  08/01/10 07:00, 38, 08/01/10 12:00, 1, 08/01/10 03:00, 1.6, 08/01/10 11:00, 2.9, 08/01/10 01:00, 
 08/01/11, 2, 73, 0.9, 1.6, 2.9, 4, 5.61, 6.2,  08/01/11 11:00, 99, 08/01/11 20:00, 1, 08/01/11 01:00, 1.6, 08/01/11 01:00, 2.9, 08/01/11 01:00, 1.5, 08/01/11 20:00, 1.46, 08/01/11 12:00, -4.1,  08/01/11 01:00, 40, 08/01/11 11:00, 0.9, 08/01/11 08:00, 1.6, 08/01/11 01:00, 2.9, 08/01/11 01:00, 
 08/01/12, -0.1, 98, 1, 1.6, 2.8, 20, 1.6, 6.5,  08/01/12 06:00, 99, 08/01/12 01:00, 1, 08/01/12 01:00, 1.6, 08/01/12 01:00, 2.9, 08/01/12 01:00, 3.5, 08/01/12 13:00, 0.31, 08/01/12 15:00, -6.3,  08/01/13 00:00, 93, 08/01/12 22:00, 0.9, 08/01/12 02:00, 1.5, 08/01/12 21:00, 2.7, 08/01/12 17:00, 
 08/01/13, -9.1, 84, 0.8, 1.5, 2.7, 1, 9.3, -7.1,  08/01/13 12:00, 94, 08/01/13 04:00, 0.9, 08/01/13 01:00, 1.5, 08/01/13 01:00, 2.7, 08/01/13 01:00, 0.5, 08/01/13 06:00, 1.79, 08/01/13 13:00, -11.2,  08/01/13 21:00, 72, 08/01/14 00:00, 0.7, 08/01/13 18:00, 1.3, 08/01/13 22:00, 2.6, 08/01/13 03:00, 
 08/01/14, -9.7, 86, 0.6, 1.3, 2.6, 0, 8.22, -6.6,  08/01/14 14:00, 94, 08/01/14 19:00, 0.7, 08/01/14 01:00, 1.4, 08/01/14 02:00, 2.7, 08/01/14 02:00, 0,   /  /     :, 2.11, 08/01/14 12:00, -12.2,  08/01/14 07:00, 78, 08/01/14 14:00, 0.5, 08/01/14 19:00, 1.2, 08/01/14 15:00, 2.5, 08/01/14 13:00, 
 08/01/15, -7.4, 74, 0.5, 1.2, 2.6, 0, 11.15, -2.4,  08/01/15 15:00, 99, 08/01/15 09:00, 0.6, 08/01/15 12:00, 1.3, 08/01/15 11:00, 2.6, 08/01/15 11:00, 0,   /  /     :, 2.16, 08/01/15 13:00, -13.1,  08/01/15 03:00, 53, 08/01/15 23:00, 0.5, 08/01/15 01:00, 1.2, 08/01/15 01:00, 2.5, 08/01/15 01:00, 
 08/01/16, -5.2, 91, 0.5, 1.2, 2.6, 0.5, 3.11, -3.8,  08/01/16 12:00, 97, 08/01/16 13:00, 0.5, 08/01/16 03:00, 1.2, 08/01/16 01:00, 2.6, 08/01/16 01:00, 0.5, 08/01/16 12:00, 0.49, 08/01/16 12:00, -7.5,  08/01/17 00:00, 65, 08/01/16 01:00, 0.4, 08/01/16 01:00, 1.2, 08/01/16 01:00, 2.5, 08/01/16 10:00, 
 08/01/17, -9.7, 86, 0.5, 1.1, 2.5, 2.5, 7.32, -7.5,  08/01/17 01:00, 95, 08/01/17 01:00, 0.5, 08/01/17 01:00, 1.2, 08/01/17 01:00, 2.6, 08/01/17 13:00, 0.5, 08/01/17 03:00, 1.58, 08/01/17 13:00, -12,  08/01/17 23:00, 68, 08/01/17 14:00, 0.4, 08/01/17 21:00, 1.1, 08/01/17 03:00, 2.5, 08/01/17 01:00, 
 08/01/18, -8.7, 79, 0.4, 1.1, 2.5, 0, 10.98, -4.7,  08/01/18 14:00, 94, 08/01/18 20:00, 0.5, 08/01/18 01:00, 1.1, 08/01/18 01:00, 2.5, 08/01/18 01:00, 0,   /  /     :, 2.21, 08/01/18 13:00, -11.7,  08/01/18 01:00, 52, 08/01/18 13:00, 0.4, 08/01/18 02:00, 1.1, 08/01/18 01:00, 2.4, 08/01/18 14:00, 
 08/01/19, -8.2, 66, 0.3, 1.1, 2.4, 0, 12.11, -5.1,  08/01/19 12:00, 92, 08/01/19 01:00, 0.4, 08/01/19 02:00, 1.1, 08/01/19 01:00, 2.4, 08/01/19 01:00, 0,   /  /     :, 2.48, 08/01/19 12:00, -11.5,  08/01/19 01:00, 48, 08/01/19 15:00, 0.3, 08/01/19 01:00, 1, 08/01/19 15:00, 2.3, 08/01/19 19:00, 
 08/01/20, -6.5, 66, 0.3, 1, 2.4, 1.5, 6.33, -3.8,  08/01/20 13:00, 93, 08/01/20 22:00, 0.3, 08/01/20 01:00, 1.1, 08/01/20 01:00, 2.4, 08/01/20 01:00, 0.5, 08/01/20 21:00, 1.14, 08/01/20 13:00, -9.1,  08/01/20 01:00, 46, 08/01/20 10:00, 0.3, 08/01/20 01:00, 1, 08/01/20 02:00, 2.3, 08/01/20 02:00, 
 08/01/21, -6.9, 92, 0.3, 1, 2.3, 2, 4.43, -5.3,  08/01/21 14:00, 99, 08/01/21 09:00, 0.3, 08/01/21 01:00, 1, 08/01/21 01:00, 2.4, 08/01/21 02:00, 0.5, 08/01/21 01:00, 0.88, 08/01/21 12:00, -8.8,  08/01/21 22:00, 88, 08/01/21 13:00, 0.3, 08/01/21 01:00, 1, 08/01/21 01:00, 2.2, 08/01/21 14:00, 
 08/01/22, -5.8, 79, 0.3, 1, 2.3, 0.5, 6.22, -1.3,  08/01/22 14:00, 99, 08/01/22 09:00, 0.3, 08/01/22 01:00, 1, 08/01/22 01:00, 2.3, 08/01/22 01:00, 0.5, 08/01/22 07:00, 1.25, 08/01/22 14:00, -10.1,  08/01/22 02:00, 62, 08/01/23 00:00, 0.3, 08/01/22 01:00, 0.9, 08/01/22 06:00, 2.2, 08/01/22 02:00, 
 08/01/23, -1.5, 92, 0.4, 1, 2.3, 3.5, 1.69, 0.1,  08/01/23 16:00, 99, 08/01/23 13:00, 0.4, 08/01/23 13:00, 1, 08/01/23 01:00, 2.3, 08/01/23 01:00, 1, 08/01/23 12:00, 0.29, 08/01/23 11:00, -4.5,  08/01/23 03:00, 70, 08/01/23 01:00, 0.3, 08/01/23 01:00, 1, 08/01/23 01:00, 2.2, 08/01/23 02:00, 
 08/01/24, -7.6, 94, 0.4, 1, 2.3, 12, 2.03, -1.4,  08/01/24 01:00, 98, 08/01/24 01:00, 0.4, 08/01/24 01:00, 1, 08/01/24 01:00, 2.3, 08/01/24 01:00, 1, 08/01/24 12:00, 0.4, 08/01/24 11:00, -11.4,  08/01/25 00:00, 88, 08/01/25 00:00, 0.3, 08/01/25 00:00, 1, 08/01/24 01:00, 2.3, 08/01/24 01:00, 
 08/01/25, -10.6, 83, 0.3, 1, 2.2, 1.5, 9.05, -8.2,  08/01/25 13:00, 93, 08/01/25 11:00, 0.4, 08/01/25 13:00, 1, 08/01/25 01:00, 2.3, 08/01/25 01:00, 0.5, 08/01/25 01:00, 1.84, 08/01/25 14:00, -11.8,  08/01/25 02:00, 72, 08/01/25 16:00, 0.3, 08/01/25 01:00, 1, 08/01/25 01:00, 2.1, 08/01/25 23:00, 
 08/01/26, -9.8, 78, 0.3, 1, 2.2, 0, 9.9, -6.5,  08/01/26 13:00, 92, 08/01/26 19:00, 0.3, 08/01/26 01:00, 1, 08/01/26 01:00, 2.2, 08/01/26 01:00, 0,   /  /     :, 1.92, 08/01/26 13:00, -12.8,  08/01/26 22:00, 62, 08/01/26 10:00, 0.3, 08/01/26 01:00, 1, 08/01/26 01:00, 2.1, 08/01/26 05:00, 
 08/01/27, -9.7, 76, 0.3, 1, 2.1, 0, 12.06, -6.4,  08/01/27 13:00, 89, 08/01/27 19:00, 0.3, 08/01/27 01:00, 1, 08/01/27 01:00, 2.2, 08/01/27 02:00, 0,   /  /     :, 2.18, 08/01/27 11:00, -13,  08/01/27 02:00, 64, 08/01/27 01:00, 0.3, 08/01/27 01:00, 0.9, 08/01/27 22:00, 2.1, 08/01/27 01:00, 
 08/01/28, -6.5, 77, 0.3, 0.9, 2.1, 0, 9.77, -0.8,  08/01/28 13:00, 92, 08/01/28 23:00, 0.3, 08/01/28 01:00, 1, 08/01/28 08:00, 2.2, 08/01/28 13:00, 0,   /  /     :, 2.22, 08/01/28 13:00, -13.4,  08/01/28 04:00, 52, 08/01/28 20:00, 0.3, 08/01/28 01:00, 0.8, 08/01/28 03:00, 2.1, 08/01/28 01:00, 
 08/01/29, -1.2, 98, 0.3, 0.9, 2.1, 8.5, 1.43, 0.4,  08/01/29 11:00, 99, 08/01/29 10:00, 0.3, 08/01/29 01:00, 0.9, 08/01/29 01:00, 2.2, 08/01/29 06:00, 1, 08/01/29 04:00, 0.33, 08/01/29 11:00, -2.5,  08/01/29 02:00, 89, 08/01/29 01:00, 0.3, 08/01/29 01:00, 0.8, 08/01/29 21:00, 2.1, 08/01/29 01:00, 
 08/01/30, -3.2, 91, 0.4, 0.9, 2.2, 7, 5.5, -1.1,  08/01/30 13:00, 99, 08/01/30 02:00, 0.4, 08/01/30 12:00, 1, 08/01/30 14:00, 2.2, 08/01/30 02:00, 2.5, 08/01/30 23:00, 1.19, 08/01/30 13:00, -5.3,  08/01/31 00:00, 78, 08/01/30 14:00, 0.3, 08/01/30 01:00, 0.8, 08/01/30 05:00, 2.1, 08/01/30 01:00, 
 08/01/31, -6.9, 84, 0.3, 0.9, 2.2, 1.5, 10.49, -5,  08/01/31 13:00, 93, 08/01/31 05:00, 0.4, 08/01/31 01:00, 0.9, 08/01/31 01:00, 2.2, 08/01/31 01:00, 0.5, 08/01/31 02:00, 1.93, 08/01/31 13:00, -8.5,  08/02/01 00:00, 69, 08/01/31 16:00, 0.3, 08/01/31 03:00, 0.9, 08/01/31 01:00, 2.1, 08/01/31 20:00, 
 08/02/01, -8.9, 83, 0.3, 0.9, 2.1, 1.5, 10.08, -6.7,  08/02/01 12:00, 93, 08/02/01 04:00, 0.3, 08/02/01 01:00, 0.9, 08/02/01 01:00, 2.2, 08/02/01 01:00, 0.5, 08/02/01 04:00, 1.81, 08/02/01 14:00, -12.5,  08/02/02 00:00, 66, 08/02/01 12:00, 0.3, 08/02/01 01:00, 0.9, 08/02/01 01:00, 2, 08/02/01 08:00, 
 08/02/02, -6.5, 71, 0.3, 0.9, 2.1, 1, 7.15, -3.1,  08/02/02 14:00, 95, 08/02/02 23:00, 0.3, 08/02/02 01:00, 0.9, 08/02/02 01:00, 2.1, 08/02/02 01:00, 0.5, 08/02/02 23:00, 1.16, 08/02/02 11:00, -11.3,  08/02/02 01:00, 56, 08/02/02 14:00, 0.3, 08/02/02 01:00, 0.9, 08/02/02 01:00, 2, 08/02/02 03:00, 
 08/02/03, -4.7, 96, 0.3, 0.9, 2.1, 12.5, 1.77, -2.3,  08/02/03 12:00, 99, 08/02/03 06:00, 0.3, 08/02/03 01:00, 0.9, 08/02/03 01:00, 2.1, 08/02/03 06:00, 2, 08/02/03 18:00, 0.35, 08/02/03 12:00, -7.9,  08/02/03 22:00, 91, 08/02/03 12:00, 0.3, 08/02/03 01:00, 0.9, 08/02/03 01:00, 2, 08/02/03 01:00, 
 08/02/04, -6.6, 89, 0.3, 0.9, 2.1, 3.5, 6.38, -2.7,  08/02/04 14:00, 97, 08/02/04 15:00, 0.3, 08/02/04 01:00, 0.9, 08/02/04 01:00, 2.1, 08/02/04 01:00, 1, 08/02/04 11:00, 1.26, 08/02/04 14:00, -10.5,  08/02/04 05:00, 73, 08/02/04 22:00, 0.3, 08/02/04 01:00, 0.8, 08/02/04 03:00, 2, 08/02/04 03:00, 
 08/02/05, -6.9, 88, 0.3, 0.9, 2.1, 2, 4.73, -4.2,  08/02/05 13:00, 94, 08/02/05 18:00, 0.4, 08/02/05 13:00, 0.9, 08/02/05 01:00, 2.1, 08/02/05 02:00, 0.5, 08/02/05 06:00, 0.78, 08/02/05 15:00, -9,  08/02/05 01:00, 73, 08/02/05 23:00, 0.3, 08/02/05 01:00, 0.8, 08/02/05 23:00, 2, 08/02/05 01:00, 
 08/02/06, -5.5, 76, 0.4, 0.9, 2.1, 1, 11.43, -1.1,  08/02/06 15:00, 96, 08/02/06 23:00, 0.5, 08/02/06 12:00, 1, 08/02/06 16:00, 2.2, 08/02/06 16:00, 1, 08/02/06 22:00, 2.1, 08/02/06 13:00, -8.7,  08/02/06 03:00, 61, 08/02/06 06:00, 0.3, 08/02/06 01:00, 0.8, 08/02/06 02:00, 2, 08/02/06 02:00, 
 08/02/07, -7.5, 80, 0.5, 1, 2.2, 1.5, 14.79, -4.7,  08/02/07 12:00, 95, 08/02/07 01:00, 0.6, 08/02/07 01:00, 1, 08/02/07 01:00, 2.2, 08/02/07 01:00, 0.5, 08/02/07 01:00, 2.31, 08/02/07 11:00, -9.4,  08/02/07 20:00, 64, 08/02/07 13:00, 0.5, 08/02/07 02:00, 0.9, 08/02/07 02:00, 2.1, 08/02/07 19:00, 
 08/02/08, -9.7, 79, 0.5, 0.9, 2.1, 0.5, 12.94, -6.1,  08/02/08 12:00, 88, 08/02/08 20:00, 0.5, 08/02/08 01:00, 1, 08/02/08 01:00, 2.2, 08/02/08 01:00, 0.5, 08/02/08 06:00, 2.06, 08/02/08 10:00, -12.7,  08/02/08 23:00, 61, 08/02/08 16:00, 0.5, 08/02/08 01:00, 0.9, 08/02/08 02:00, 2.1, 08/02/08 02:00, 
 08/02/09, -5.7, 77, 0.4, 0.9, 2.1, 17.5, 5.41, -2.4,  08/02/09 11:00, 98, 08/02/09 21:00, 0.5, 08/02/09 01:00, 0.9, 08/02/09 01:00, 2.1, 08/02/09 01:00, 3, 08/02/10 00:00, 1.18, 08/02/09 11:00, -10.8,  08/02/09 04:00, 39, 08/02/09 03:00, 0.4, 08/02/09 02:00, 0.9, 08/02/09 01:00, 2.1, 08/02/09 01:00, 
 08/02/10, -5.6, 90, 0.4, 0.9, 2.1, 0.5, 4.3, -2.6,  08/02/10 16:00, 96, 08/02/10 11:00, 0.4, 08/02/10 01:00, 0.9, 08/02/10 01:00, 2.1, 08/02/10 01:00, 0.5, 08/02/10 10:00, 0.78, 08/02/10 12:00, -8.9,  08/02/10 06:00, 80, 08/02/10 05:00, 0.4, 08/02/10 01:00, 0.9, 08/02/10 01:00, 2, 08/02/10 23:00, 
 08/02/11, -2.5, 71, 0.4, 0.9, 2.1, 0, 10.43, 1.1,  08/02/11 14:00, 91, 08/02/11 04:00, 0.4, 08/02/11 01:00, 0.9, 08/02/11 01:00, 2.1, 08/02/11 01:00, 0,   /  /     :, 2.23, 08/02/11 13:00, -9.1,  08/02/11 04:00, 45, 08/02/11 21:00, 0.4, 08/02/11 01:00, 0.9, 08/02/11 01:00, 2, 08/02/11 06:00, 
 08/02/12, -4.2, 96, 0.5, 0.9, 2, 19.5, 2.17, -1.9,  08/02/12 04:00, 99, 08/02/12 04:00, 0.5, 08/02/12 12:00, 0.9, 08/02/12 01:00, 2.1, 08/02/12 14:00, 2.5, 08/02/12 14:00, 0.45, 08/02/12 16:00, -10.5,  08/02/13 00:00, 88, 08/02/12 01:00, 0.4, 08/02/12 01:00, 0.9, 08/02/12 01:00, 2, 08/02/12 01:00, 
 08/02/13, -11.6, 90, 0.4, 0.9, 2, 3, 10.61, -10.3,  08/02/13 14:00, 99, 08/02/13 11:00, 0.5, 08/02/13 02:00, 0.9, 08/02/13 01:00, 2, 08/02/13 01:00, 1, 08/02/14 00:00, 1.86, 08/02/13 12:00, -13.3,  08/02/13 08:00, 79, 08/02/13 16:00, 0.4, 08/02/13 01:00, 0.9, 08/02/13 01:00, 2, 08/02/13 01:00, 
 08/02/14, -8.4, 92, 0.4, 0.9, 2, 3.5, 6.54, -5.8,  08/02/14 15:00, 99, 08/02/14 10:00, 0.4, 08/02/14 01:00, 0.9, 08/02/14 01:00, 2, 08/02/14 01:00, 1, 08/02/14 06:00, 1.47, 08/02/14 15:00, -11.1,  08/02/14 01:00, 87, 08/02/14 18:00, 0.4, 08/02/14 01:00, 0.9, 08/02/14 01:00, 2, 08/02/14 01:00, 
 08/02/15, -7.6, 94, 0.4, 0.9, 2, 4, 8.62, -5.2,  08/02/15 15:00, 99, 08/02/15 09:00, 0.4, 08/02/15 01:00, 0.9, 08/02/15 01:00, 2, 08/02/15 01:00, 1, 08/02/15 11:00, 1.66, 08/02/15 12:00, -9.7,  08/02/15 06:00, 89, 08/02/15 18:00, 0.4, 08/02/15 01:00, 0.9, 08/02/15 01:00, 1.9, 08/02/15 08:00, 
 08/02/16, -9.3, 86, 0.5, 1, 2.1, 3, 8.59, -7.1,  08/02/16 14:00, 93, 08/02/16 01:00, 0.6, 08/02/16 14:00, 1, 08/02/16 11:00, 2.1, 08/02/16 12:00, 1, 08/02/16 23:00, 1.31, 08/02/16 12:00, -10.9,  08/02/16 04:00, 72, 08/02/16 14:00, 0.4, 08/02/16 01:00, 0.9, 08/02/16 01:00, 2, 08/02/16 01:00, 
 08/02/17, -10, 88, 0.5, 1, 2.1, 7, 6.89, -8.3,  08/02/17 13:00, 92, 08/02/17 01:00, 0.6, 08/02/17 04:00, 1, 08/02/17 01:00, 2.1, 08/02/17 01:00, 1, 08/02/17 04:00, 1.41, 08/02/17 13:00, -10.8,  08/02/17 07:00, 82, 08/02/17 13:00, 0.5, 08/02/17 01:00, 0.9, 08/02/17 21:00, 2, 08/02/17 07:00, 
 08/02/18, -9, 82, 0.5, 0.9, 2, 0.5, 12.11, -5.6,  08/02/18 15:00, 93, 08/02/18 21:00, 0.5, 08/02/18 01:00, 0.9, 08/02/18 01:00, 2, 08/02/18 01:00, 0.5, 08/02/18 15:00, 2.1, 08/02/18 13:00, -12.3,  08/02/18 03:00, 71, 08/02/18 07:00, 0.4, 08/02/18 08:00, 0.9, 08/02/18 01:00, 2, 08/02/18 01:00, 
 08/02/19, -7.4, 74, 0.5, 0.9, 2, 0, 16.65, -3.5,  08/02/19 11:00, 89, 08/02/19 01:00, 0.5, 08/02/19 01:00, 1, 08/02/19 18:00, 2, 08/02/19 01:00, 0,   /  /     :, 2.62, 08/02/19 12:00, -12.1,  08/02/19 03:00, 60, 08/02/19 16:00, 0.5, 08/02/19 01:00, 0.9, 08/02/19 01:00, 2, 08/02/19 01:00, 
 08/02/20, -4.3, 81, 0.5, 1, 2.1, 7.5, 12.32, -0.2,  08/02/20 13:00, 98, 08/02/20 19:00, 0.6, 08/02/20 13:00, 1, 08/02/20 10:00, 2.1, 08/02/20 11:00, 1.5, 08/02/20 23:00, 2.63, 08/02/20 12:00, -7.3,  08/02/20 08:00, 57, 08/02/20 12:00, 0.5, 08/02/20 01:00, 0.9, 08/02/20 01:00, 2, 08/02/20 01:00, 
 08/02/21, -4.6, 76, 0.5, 0.9, 2, 4.5, 17.65, -0.7,  08/02/21 14:00, 98, 08/02/21 11:00, 0.5, 08/02/21 01:00, 1, 08/02/21 01:00, 2.1, 08/02/21 01:00, 1, 08/02/21 01:00, 2.89, 08/02/21 13:00, -8.3,  08/02/21 07:00, 33, 08/02/22 00:00, 0.5, 08/02/21 01:00, 0.9, 08/02/21 03:00, 2, 08/02/21 03:00, 
 08/02/22, -0.5, 51, 0.5, 0.9, 2, 0, 16.31, 4.2,  08/02/22 14:00, 71, 08/02/22 18:00, 0.5, 08/02/22 01:00, 0.9, 08/02/22 01:00, 2, 08/02/22 01:00, 0,   /  /     :, 2.83, 08/02/22 13:00, -4.1,  08/02/22 05:00, 30, 08/02/22 03:00, 0.4, 08/02/22 06:00, 0.9, 08/02/22 01:00, 2, 08/02/22 01:00, 
 08/02/23, -5.3, 86, 0.4, 0.9, 2, 23.5, 3.82, -0.2,  08/02/23 04:00, 99, 08/02/23 12:00, 0.5, 08/02/23 01:00, 0.9, 08/02/23 01:00, 2, 08/02/23 01:00, 3.5, 08/02/23 15:00, 0.81, 08/02/23 14:00, -12.5,  08/02/24 00:00, 40, 08/02/23 01:00, 0.4, 08/02/23 03:00, 0.9, 08/02/23 01:00, 1.9, 08/02/23 14:00, 
 08/02/24, -10.7, 95, 0.4, 0.9, 1.9, 11.5, 10.1, -8.3,  08/02/24 14:00, 99, 08/02/24 07:00, 0.4, 08/02/24 01:00, 0.9, 08/02/24 01:00, 1.9, 08/02/24 01:00, 2.5, 08/02/24 04:00, 1.9, 08/02/24 14:00, -13.1,  08/02/24 02:00, 89, 08/02/24 23:00, 0.4, 08/02/24 01:00, 0.9, 08/02/24 01:00, 1.9, 08/02/24 01:00, 
 08/02/25, -8.2, 89, 0.4, 0.9, 1.9, 0.5, 17.62, -4.5,  08/02/25 14:00, 99, 08/02/25 11:00, 0.4, 08/02/25 01:00, 0.9, 08/02/25 01:00, 1.9, 08/02/25 01:00, 0.5, 08/02/25 06:00, 2.61, 08/02/25 12:00, -12.5,  08/02/25 02:00, 74, 08/02/25 21:00, 0.4, 08/02/25 01:00, 0.9, 08/02/25 01:00, 1.9, 08/02/25 01:00, 
 08/02/26, -2.6, 90, 0.4, 0.9, 1.9, 27.5, 3.64, 0.3,  08/02/26 18:00, 99, 08/02/26 14:00, 0.4, 08/02/26 01:00, 0.9, 08/02/26 01:00, 1.9, 08/02/26 01:00, 5, 08/02/26 21:00, 0.8, 08/02/26 12:00, -5.4,  08/02/26 01:00, 59, 08/02/26 02:00, 0.4, 08/02/26 01:00, 0.9, 08/02/26 01:00, 1.9, 08/02/26 01:00, 
 08/02/27, -8.5, 88, 0.5, 0.9, 2, 12, 4.35, -6.9,  08/02/27 01:00, 95, 08/02/27 17:00, 0.5, 08/02/27 11:00, 1, 08/02/27 12:00, 2, 08/02/27 11:00, 2, 08/02/27 17:00, 0.71, 08/02/27 11:00, -10.3,  08/02/27 07:00, 76, 08/02/27 11:00, 0.4, 08/02/27 01:00, 0.9, 08/02/27 01:00, 1.9, 08/02/27 01:00, 
 08/02/28, -7.8, 88, 0.5, 0.9, 1.9, 6.5, 9.09, -4.4,  08/02/28 14:00, 99, 08/02/28 10:00, 0.5, 08/02/28 01:00, 1, 08/02/28 12:00, 2, 08/02/28 03:00, 2.5, 08/02/28 11:00, 1.82, 08/02/28 14:00, -10.3,  08/02/28 07:00, 78, 08/02/28 14:00, 0.5, 08/02/28 01:00, 0.9, 08/02/28 01:00, 1.9, 08/02/28 01:00, 
 08/02/29, -3.2, 75, 0.5, 0.9, 1.9, 0.5, 16.73, 2.6,  08/02/29 13:00, 91, 08/03/01 00:00, 0.5, 08/02/29 01:00, 0.9, 08/02/29 01:00, 2, 08/02/29 15:00, 0.5, 08/02/29 03:00, 3.12, 08/02/29 13:00, -9.8,  08/02/29 07:00, 56, 08/02/29 15:00, 0.4, 08/02/29 04:00, 0.9, 08/02/29 01:00, 1.9, 08/02/29 01:00, 
 08/03/01, -4.8, 91, 0.4, 0.9, 1.9, 6.5, 4.3, -2.9,  08/03/01 02:00, 99, 08/03/01 10:00, 0.5, 08/03/01 01:00, 0.9, 08/03/01 01:00, 1.9, 08/03/01 01:00, 2, 08/03/01 10:00, 0.97, 08/03/01 14:00, -6.9,  08/03/01 23:00, 80, 08/03/01 17:00, 0.4, 08/03/01 03:00, 0.9, 08/03/01 01:00, 1.9, 08/03/01 01:00, 
 08/03/02, -3.1, 69, 0.4, 0.9, 1.9, 0.5, 17.52, 1.2,  08/03/02 15:00, 92, 08/03/02 05:00, 0.5, 08/03/02 15:00, 0.9, 08/03/02 01:00, 1.9, 08/03/02 01:00, 0.5, 08/03/02 18:00, 2.77, 08/03/02 13:00, -8.4,  08/03/02 06:00, 30, 08/03/02 16:00, 0.4, 08/03/02 01:00, 0.9, 08/03/02 01:00, 1.9, 08/03/02 01:00, 
 08/03/03, -2.8, 84, 0.4, 0.9, 1.8, 0, 11.33, 1.3,  08/03/03 14:00, 96, 08/03/03 19:00, 0.4, 08/03/03 01:00, 0.9, 08/03/03 01:00, 1.9, 08/03/03 01:00, 0,   /  /     :, 1.95, 08/03/03 12:00, -6,  08/03/04 00:00, 64, 08/03/03 01:00, 0.4, 08/03/03 01:00, 0.9, 08/03/03 01:00, 1.8, 08/03/03 05:00, 
 08/03/04, -6, 82, 0.4, 0.9, 1.8, 0.5, 16.18, -2.2,  08/03/04 14:00, 95, 08/03/04 22:00, 0.5, 08/03/04 11:00, 0.9, 08/03/04 01:00, 1.8, 08/03/04 01:00, 0.5, 08/03/04 02:00, 2.8, 08/03/04 14:00, -9.5,  08/03/04 07:00, 50, 08/03/04 14:00, 0.4, 08/03/04 01:00, 0.9, 08/03/04 01:00, 1.8, 08/03/04 01:00, 
 08/03/05, -7.8, 82, 0.5, 0.9, 1.8, 1, 12.67, -4.6,  08/03/05 14:00, 94, 08/03/05 03:00, 0.5, 08/03/05 11:00, 1, 08/03/05 13:00, 1.9, 08/03/05 12:00, 0.5, 08/03/05 13:00, 2.2, 08/03/05 14:00, -10.5,  08/03/06 00:00, 64, 08/03/05 15:00, 0.4, 08/03/05 01:00, 0.9, 08/03/05 01:00, 1.8, 08/03/05 01:00, 
 08/03/06, -5.6, 73, 0.5, 0.9, 1.8, 1, 15.82, -2.5,  08/03/06 14:00, 95, 08/03/07 00:00, 0.5, 08/03/06 01:00, 0.9, 08/03/06 01:00, 1.8, 08/03/06 01:00, 1, 08/03/06 23:00, 2.42, 08/03/06 14:00, -9.8,  08/03/06 01:00, 49, 08/03/06 16:00, 0.4, 08/03/06 06:00, 0.9, 08/03/06 01:00, 1.8, 08/03/06 01:00, 
 08/03/07, -4.6, 87, 0.4, 0.9, 1.8, 2, 13.29, -1.7,  08/03/07 12:00, 96, 08/03/07 04:00, 0.5, 08/03/07 06:00, 0.9, 08/03/07 01:00, 1.8, 08/03/07 01:00, 0.5, 08/03/07 01:00, 2.17, 08/03/07 13:00, -8,  08/03/07 23:00, 70, 08/03/07 15:00, 0.4, 08/03/07 01:00, 0.9, 08/03/07 01:00, 1.8, 08/03/07 01:00, 
 08/03/08, -4.1, 73, 0.4, 0.9, 1.8, 0.5, 21.19, 0.8,  08/03/08 15:00, 89, 08/03/08 01:00, 0.5, 08/03/08 12:00, 0.9, 08/03/08 01:00, 1.8, 08/03/08 01:00, 0.5, 08/03/08 03:00, 3.07, 08/03/08 13:00, -8.3,  08/03/08 02:00, 58, 08/03/08 15:00, 0.4, 08/03/08 01:00, 0.9, 08/03/08 01:00, 1.8, 08/03/08 01:00, 
 08/03/09, 1.3, 46, 0.4, 0.9, 1.8, 0, 21.67, 7.3,  08/03/09 14:00, 73, 08/03/10 00:00, 0.5, 08/03/09 12:00, 0.9, 08/03/09 01:00, 1.8, 08/03/09 01:00, 0,   /  /     :, 3.09, 08/03/09 12:00, -4.9,  08/03/09 05:00, 23, 08/03/09 13:00, 0.4, 08/03/09 01:00, 0.8, 08/03/09 16:00, 1.7, 08/03/09 20:00, 
 08/03/10, 0.7, 91, 0.4, 0.8, 1.7, 14, 3.58, 2.6,  08/03/10 12:00, 99, 08/03/10 06:00, 0.4, 08/03/10 01:00, 0.9, 08/03/10 14:00, 1.8, 08/03/10 02:00, 3.5, 08/03/10 10:00, 0.68, 08/03/10 12:00, -1.4,  08/03/11 00:00, 56, 08/03/10 23:00, 0.4, 08/03/10 01:00, 0.8, 08/03/10 01:00, 1.7, 08/03/10 01:00, 
 08/03/11, 3.8, 49, 0.4, 0.8, 1.7, 0.5, 21.89, 8.8,  08/03/11 12:00, 93, 08/03/12 00:00, 0.5, 08/03/11 11:00, 0.9, 08/03/11 11:00, 1.8, 08/03/11 13:00, 0.5, 08/03/11 02:00, 3.16, 08/03/11 13:00, -1.8,  08/03/11 02:00, 16, 08/03/11 03:00, 0.4, 08/03/11 01:00, 0.8, 08/03/11 01:00, 1.7, 08/03/11 01:00, 
 08/03/12, 2.6, 72, 0.4, 0.8, 1.7, 0, 21.14, 7.7,  08/03/12 15:00, 99, 08/03/12 06:00, 0.5, 08/03/12 11:00, 0.9, 08/03/12 13:00, 1.8, 08/03/12 13:00, 0,   /  /     :, 3.02, 08/03/12 13:00, -3.5,  08/03/12 07:00, 31, 08/03/12 16:00, 0.4, 08/03/12 01:00, 0.8, 08/03/12 01:00, 1.6, 08/03/13 00:00, 
 08/03/13, 3.2, 82, 0.5, 0.9, 1.7, 0, 18.85, 8.3,  08/03/13 14:00, 99, 08/03/13 01:00, 0.5, 08/03/13 10:00, 0.9, 08/03/13 05:00, 1.8, 08/03/13 14:00, 0,   /  /     :, 3.02, 08/03/13 12:00, -0.6,  08/03/13 06:00, 60, 08/03/13 12:00, 0.4, 08/03/13 01:00, 0.8, 08/03/13 01:00, 1.6, 08/03/13 01:00, 
 08/03/14, 3.4, 91, 0.5, 0.9, 1.7, 28.5, 4.29, 5.2,  08/03/14 18:00, 99, 08/03/14 16:00, 0.6, 08/03/14 02:00, 0.9, 08/03/14 01:00, 1.8, 08/03/14 08:00, 4, 08/03/14 19:00, 0.8, 08/03/14 11:00, 0.9,  08/03/14 22:00, 63, 08/03/14 03:00, 0.4, 08/03/14 01:00, 0.8, 08/03/14 16:00, 1.6, 08/03/14 01:00, 
 08/03/15, 2.1, 85, 0.6, 0.9, 1.6, 0, 21.88, 6.4,  08/03/15 14:00, 99, 08/03/15 01:00, 0.8, 08/03/15 20:00, 1.2, 08/03/15 21:00, 1.7, 08/03/15 13:00, 0,   /  /     :, 3.25, 08/03/15 13:00, -1.6,  08/03/15 07:00, 58, 08/03/15 15:00, 0.4, 08/03/15 01:00, 0.8, 08/03/15 01:00, 1.6, 08/03/15 01:00, 
 08/03/16, 3.7, 63, 0.9, 1.3, 1.7, 0.5, 13.55, 9.4,  08/03/16 14:00, 92, 08/03/16 22:00, 1, 08/03/16 17:00, 1.4, 08/03/16 19:00, 1.8, 08/03/16 14:00, 0.5, 08/03/16 14:00, 2.78, 08/03/16 14:00, -0.7,  08/03/17 00:00, 30, 08/03/16 16:00, 0.8, 08/03/16 01:00, 1.2, 08/03/16 09:00, 1.6, 08/03/16 01:00, 
 08/03/17, 3.1, 56, 1.3, 1.7, 1.9, 0, 24.02, 9.3,  08/03/17 15:00, 85, 08/03/17 22:00, 2, 08/03/17 16:00, 2.3, 08/03/17 22:00, 1.9, 08/03/17 11:00, 0,   /  /     :, 3.34, 08/03/17 13:00, -2.7,  08/03/17 06:00, 19, 08/03/17 13:00, 0.8, 08/03/17 03:00, 1.3, 08/03/17 08:00, 1.8, 08/03/17 01:00, 
 08/03/18, 4.6, 51, 2.2, 2.2, 2, 0, 22.94, 10.5,  08/03/18 14:00, 74, 08/03/19 00:00, 3.6, 08/03/18 15:00, 2.9, 08/03/18 21:00, 2.1, 08/03/18 10:00, 0,   /  /     :, 3.25, 08/03/18 13:00, -1,  08/03/18 06:00, 26, 08/03/18 15:00, 1.2, 08/03/18 07:00, 1.8, 08/03/18 10:00, 1.9, 08/03/18 04:00, 